Home   Weather   Southend-on-Sea   Past weeks

Flag for United Kingdom Past Weather in Southend-on-Sea, England, United Kingdom — Yesterday and Last 2 Weeks

Now
45 °F

Passing clouds.


Feels Like: 38 °F
Forecast: 35 / 51 °F
Wind: 14 mph from Northwest

Location: Southend Airport-On-Sea

Current Time: Apr 26, 2017 at 11:24:38 am

Latest Report: Apr 26, 2017 at 10:50 am


Visibility: N/A

Pressure: 30.01 "Hg

Humidity: 61%

Dew Point: 32 °F

Location of Southend-on-SeaLocation

Past Weather in Southend-on-Sea — Graph

°F

Southend-on-Sea Temperature Yesterday

Maximum temperature yesterday: 52 °F (at 4:20 pm)
Minimum temperature yesterday: 34 °F (at 5:20 am)
Average temperature yesterday: 43 °F

High & Low Weather Summary for the Past Weeks

 TemperatureHumidityPressure
High63 °F (Apr 14, 6:20 pm)100% (Apr 21, 1:50 am)30.63 "Hg (Apr 21, 1:50 am)
Low32 °F (Apr 20, 2:50 am)30% (Apr 25, 1:50 pm)29.86 "Hg (Apr 24, 4:50 pm)
Average49 °F63%30.22 "Hg
* Reported Apr 11 10:50 am — Apr 26 10:20 am, Southend-on-Sea, Weather by CustomWeather, © 2017

Note: Actual official high and low records may vary slightly from our data, if they occured in-between our weather recording intervals... More about our weather records

Advertising

Southend-on-Sea Weather History for the Previous 24 Hours

Scroll right to see more
 ConditionsComfort  
Time TempWeatherWind HumidityBarometerVisibility
10:20 am
Wed, Apr 26
45 °FScattered clouds.14 mph66%30.01 "HgN/A
9:50 am43 °FPartly sunny.13 mph71%30.01 "HgN/A
9:20 am43 °FPartly sunny.14 mph71%30.01 "HgN/A
8:50 am41 °FScattered clouds.12 mph76%30.01 "HgN/A
8:20 am39 °FPartly sunny.13 mph81%30.01 "HgN/A
7:50 am41 °FPartly sunny.13 mph81%30.01 "HgN/A
7:20 am37 °FPartly sunny.13 mph81%29.98 "HgN/A
6:50 am37 °FScattered clouds.10 mph81%29.98 "HgN/A
6:20 am36 °FPassing clouds.10 mph87%29.98 "HgN/A
5:50 am36 °FPartly sunny.10 mph87%29.98 "HgN/A
5:20 am36 °FPassing clouds.8 mph87%29.98 "HgN/A
1:20 am36 °FPassing clouds.6 mph81%29.98 "HgN/A
12:50 am36 °FClear.6 mph81%29.98 "Hg10 mi
12:20 am36 °FClear.8 mph87%29.95 "Hg10 mi
11:50 pm
Tue, Apr 25
36 °FClear.8 mph87%29.95 "Hg10 mi
11:20 pm36 °FClear.8 mph87%29.95 "Hg10 mi
10:50 pm37 °FClear.8 mph81%29.95 "Hg10 mi
10:20 pm39 °FClear.9 mph75%29.95 "Hg10 mi
9:50 pm39 °FPassing clouds.8 mph70%29.95 "HgN/A
9:20 pm39 °FPassing clouds.8 mph70%29.95 "HgN/A
8:50 pm39 °FPassing clouds.8 mph70%29.92 "HgN/A
8:20 pm41 °FPassing clouds.8 mph66%29.92 "HgN/A
7:50 pm41 °FScattered showers. Passing clouds.9 mph66%29.92 "HgN/A
7:20 pm43 °FPassing clouds.9 mph61%29.92 "HgN/A
6:50 pm46 °FPassing clouds.16 mph53%29.92 "HgN/A
6:20 pm46 °FScattered showers. Clear.16 mph53%29.89 "HgN/A
5:50 pm48 °FPassing clouds.10 mph37%29.89 "HgN/A
5:20 pm50 °FPassing clouds.14 mph32%29.89 "HgN/A
4:50 pm52 °FPassing clouds.10 mph32%29.89 "HgN/A
4:20 pm52 °FPassing clouds.9 mph32%29.89 "HgN/A
3:50 pm50 °FPassing clouds.13 mph32%29.89 "HgN/A
3:20 pm50 °FPassing clouds.10 mph30%29.92 "HgN/A
2:50 pm50 °FPassing clouds.10 mph30%29.92 "HgN/A
2:20 pm50 °FPassing clouds.12 mph30%29.92 "HgN/A
1:50 pm50 °FPassing clouds.9 mph30%29.92 "HgN/A
1:20 pm50 °FPassing clouds.10 mph32%29.92 "HgN/A
12:50 pm46 °FPassing clouds.8 mph34%29.92 "HgN/A
12:20 pm46 °FPartly sunny.12 mph40%29.92 "HgN/A
11:50 am48 °FPartly sunny.10 mph43%29.92 "HgN/A
11:20 am48 °FScattered clouds.10 mph46%29.92 "HgN/A
Weather by CustomWeather, © 2017

See weather overviewHow to use our weather pages